M I D A S
Marine Information and Data Acquisition System
Tripno 1782 of the Zeeleeuw from 2009-09-22 06:49:20 to 2009-09-22 14:29:12
Back to CruiseResearch ActivitiesStationsMapUnderway DataData graphs

EquipmentUnitsComments
TimeDGPSUTC
LatitudeDGPSDM.mWGS84
LongitudeDGPSDM.mWGS84
SpeedMeteo Stationm/sRelative wind speed
DirectionMeteo StationdegRelative wind direction
TemperatureMeteo Stationdeg CelciusAir temperature
PressureMeteo StationPaAtmospheric pressure
HumidityMeteo Station%Relative humidity
Missing or incorrect values are displayed as -999
Metereological data collected by the RV Zeeleeuw from 2009-09-22 06:50:13 to 2009-09-22 14:35:28
Time Latitude Longitude Speed Direction Temperature Pressure Humidity
2009-09-22 06:51 51°13.662 2°55.96 1.8 15 13.5 102440 41
2009-09-22 06:52 51°13.662 2°55.96 1.4 83 13.5 102440 40
2009-09-22 06:53 51°13.662 2°55.96 2.5 13 13.5 102440 45
2009-09-22 06:54 51°13.663 2°55.959 1.9 284 13.5 102440 45
2009-09-22 06:55 51°13.661 2°55.96 0.2 18 13.6 102440 44
2009-09-22 06:56 51°13.669 2°55.931 0.9 10 13.6 102440 45
2009-09-22 06:57 51°13.692 2°55.836 5.1 42 13.6 102440 40
2009-09-22 06:58 51°13.692 2°55.75 3.5 42 13.6 102440 45
2009-09-22 06:59 51°13.699 2°55.734 4.2 76 13.6 102440 40
2009-09-22 07:00 51°13.75 2°55.703 1.1 281 13.6 102440 44
2009-09-22 07:01 51°13.862 2°55.61 2.9 279 13.6 102430 41
2009-09-22 07:02 51°13.995 2°55.506 2.7 280 13.7 102430 44
2009-09-22 07:03 51°14.136 2°55.395 4.2 280 13.7 102440 45
2009-09-22 07:04 51°14.267 2°55.232 7.2 283 13.7 102430 41
2009-09-22 07:05 51°14.392 2°55.025 8.5 284 13.6 102430 42
2009-09-22 07:06 51°14.544 2°54.85 7.6 284 13.7 102440 42
2009-09-22 07:07 51°14.706 2°54.692 7.2 280 13.7 102440 41
2009-09-22 07:08 51°14.868 2°54.538 7.2 285 13.8 102440 42
2009-09-22 07:09 51°15.032 2°54.393 7 304 13.9 102440 42
2009-09-22 07:10 51°15.201 2°54.249 7.1 284 14 102450 43
2009-09-22 07:11 51°15.369 2°54.109 7.7 278 14.1 102450 41
2009-09-22 07:12 51°15.533 2°53.957 7.4 280 14.1 102450 44
2009-09-22 07:13 51°15.692 2°53.789 8.5 307 14.1 102440 44
2009-09-22 07:14 51°15.852 2°53.618 8.9 280 14.2 102440 42
2009-09-22 07:15 51°16.011 2°53.447 7.9 279 14.2 102440 42
2009-09-22 07:16 51°16.172 2°53.276 8.2 278 14.3 102440 45
2009-09-22 07:17 51°16.333 2°53.106 8 281 14.4 102440 42
2009-09-22 07:18 51°16.496 2°52.936 8.6 304 14.5 102440 43
2009-09-22 07:19 51°16.66 2°52.774 8.8 280 14.5 102440 42
2009-09-22 07:20 51°16.824 2°52.611 8.4 282 14.5 102440 43
2009-09-22 07:21 51°16.992 2°52.471 7 280 14.6 102440 42
2009-09-22 07:22 51°17.162 2°52.338 8.5 283 14.6 102430 44
2009-09-22 07:23 51°17.337 2°52.228 5.9 309 14.6 102430 44
2009-09-22 07:24 51°17.521 2°52.189 3.8 279 14.6 102440 45
2009-09-22 07:25 51°17.707 2°52.164 4.2 306 14.7 102440 41
2009-09-22 07:26 51°17.892 2°52.134 5.2 279 14.7 102440 45
2009-09-22 07:27 51°18.076 2°52.097 4.4 307 14.7 102440 44
2009-09-22 07:28 51°18.26 2°52.062 4.7 283 14.7 102430 46
2009-09-22 07:29 51°18.446 2°52.023 6.4 307 14.9 102430 42
2009-09-22 07:30 51°18.631 2°51.979 5.6 286 14.9 102450 45
2009-09-22 07:31 51°18.816 2°51.934 6.6 307 15 102440 43
2009-09-22 07:32 51°19 2°51.89 6.1 306 15.1 102440 43
2009-09-22 07:33 51°19.184 2°51.848 4.9 285 15.1 102440 42
2009-09-22 07:34 51°19.368 2°51.804 7.2 309 15.2 102450 43
2009-09-22 07:35 51°19.551 2°51.763 6.7 281 15.3 102450 45
2009-09-22 07:36 51°19.734 2°51.724 7.5 307 15.3 102450 43
2009-09-22 07:37 51°19.92 2°51.699 6.1 283 15.4 102450 43
2009-09-22 07:38 51°20.105 2°51.668 5 308 15.4 102440 45
2009-09-22 07:39 51°20.29 2°51.642 7.5 286 15.4 102430 44
2009-09-22 07:40 51°20.479 2°51.617 6.4 304 15.4 102440 43
2009-09-22 07:41 51°20.666 2°51.59 7 284 15.5 102440 45
2009-09-22 07:42 51°20.853 2°51.567 7.1 284 15.5 102440 43
2009-09-22 07:43 51°21.038 2°51.543 12.4 304 15.6 102430 44
2009-09-22 07:44 51°21.22 2°51.52 14.8 281 15.6 102430 44
2009-09-22 07:45 51°21.401 2°51.493 13.2 307 15.7 102420 44
2009-09-22 07:46 51°21.582 2°51.466 11.6 279 15.8 102420 45
2009-09-22 07:47 51°21.765 2°51.442 12.3 277 16 102440 44
2009-09-22 07:48 51°21.947 2°51.416 12 285 16.1 102430 45
2009-09-22 07:49 51°22.133 2°51.391 12 303 16.1 102400 45
2009-09-22 07:50 51°22.319 2°51.367 11.8 304 16.2 102410 43
2009-09-22 07:51 51°22.504 2°51.348 13.7 308 16.2 102400 43
2009-09-22 07:52 51°22.689 2°51.324 13.6 308 16.2 102440 44
2009-09-22 07:53 51°22.873 2°51.296 13.6 305 16.2 102410 44
2009-09-22 07:54 51°23.058 2°51.274 13 305 16.2 102420 42
2009-09-22 07:55 51°23.241 2°51.256 11.4 305 16.2 102420 44
2009-09-22 07:56 51°23.426 2°51.238 11 310 16.3 102420 42
2009-09-22 07:57 51°23.61 2°51.219 12.6 308 16.3 102400 42
2009-09-22 07:58 51°23.793 2°51.196 10.4 301 16.3 102410 43
2009-09-22 07:59 51°23.974 2°51.174 14.2 307 16.3 102410 42
2009-09-22 08:00 51°24.158 2°51.15 14 308 16.3 102420 43
2009-09-22 08:01 51°24.34 2°51.127 12.3 301 16.3 102410 42
2009-09-22 08:02 51°24.521 2°51.106 13.1 305 16.3 102410 43
2009-09-22 08:03 51°24.702 2°51.084 11.5 305 16.3 102420 43
2009-09-22 08:04 51°24.883 2°51.059 11.8 303 16.3 102450 43
2009-09-22 08:05 51°25.062 2°51.034 12.7 304 16.3 102420 42
2009-09-22 08:06 51°25.241 2°51.009 12.3 305 16.3 102430 43
2009-09-22 08:07 51°25.418 2°50.979 12.8 307 16.3 102430 43
2009-09-22 08:08 51°25.596 2°50.952 11.6 302 16.3 102430 43
2009-09-22 08:09 51°25.775 2°50.923 12.4 306 16.3 102430 42
2009-09-22 08:10 51°25.954 2°50.897 13.8 305 16.2 102430 43
2009-09-22 08:11 51°26.134 2°50.871 16.7 308 16.2 102430 42
2009-09-22 08:12 51°26.314 2°50.845 13.2 302 16.2 102440 42
2009-09-22 08:13 51°26.494 2°50.818 10.8 307 16.2 102440 43
2009-09-22 08:14 51°26.675 2°50.789 12.9 301 16.2 102430 41
2009-09-22 08:15 51°26.857 2°50.766 15.1 306 16.3 102440 43
2009-09-22 08:16 51°27.038 2°50.746 12.8 305 16.4 102430 43
2009-09-22 08:17 51°27.218 2°50.728 12.6 303 16.3 102430 42
2009-09-22 08:18 51°27.4 2°50.711 11.9 301 16.3 102430 43
2009-09-22 08:19 51°27.579 2°50.692 12.2 304 16.3 102430 41
2009-09-22 08:20 51°27.758 2°50.672 12.4 308 16.2 102420 41
2009-09-22 08:21 51°27.939 2°50.653 9.4 305 16.2 102450 42
2009-09-22 08:22 51°28.119 2°50.633 11.7 310 16.2 102430 43
2009-09-22 08:23 51°28.297 2°50.613 12.9 308 16.1 102440 43
2009-09-22 08:24 51°28.475 2°50.586 12.3 304 16.1 102410 43
2009-09-22 08:25 51°28.65 2°50.562 15.2 302 16.2 102420 41
2009-09-22 08:26 51°28.819 2°50.487 13 303 16.2 102390 42
2009-09-22 08:27 51°28.983 2°50.372 14 308 16.2 102370 43
2009-09-22 08:28 51°29.15 2°50.258 12.3 303 16.2 102380 42
2009-09-22 08:29 51°29.323 2°50.183 10.9 302 16.2 102380 42
2009-09-22 08:30 51°29.484 2°50.246 7.2 54 16.2 102410 41
2009-09-22 08:31 51°29.6 2°50.441 3.2 53 16.2 102410 44
2009-09-22 08:32 51°29.662 2°50.695 6.3 44 16.5 102410 44
2009-09-22 08:33 51°29.71 2°50.954 4.1 59 16.4 102410 43
2009-09-22 08:34 51°29.752 2°51.216 5.2 51 16.3 102410 40
2009-09-22 08:35 51°29.794 2°51.478 5.4 43 16.3 102410 41
2009-09-22 08:36 51°29.839 2°51.743 6.4 42 16.3 102410 44
2009-09-22 08:37 51°29.883 2°52.003 6.8 43 16.2 102410 40
2009-09-22 08:38 51°29.927 2°52.265 4.8 44 16.2 102410 41
2009-09-22 08:39 51°29.971 2°52.531 5.5 44 16.3 102420 43
2009-09-22 08:40 51°30.013 2°52.795 6.4 51 16.2 102420 43
2009-09-22 08:41 51°30.057 2°53.057 5.2 53 16.3 102420 42
2009-09-22 08:42 51°30.099 2°53.321 4.8 52 16.6 102420 42
2009-09-22 08:43 51°30.165 2°53.567 6 57 16.9 102430 39
2009-09-22 08:44 51°30.243 2°53.808 4.3 53 16.7 102430 42
2009-09-22 08:45 51°30.321 2°54.047 5.6 56 17 102430 42
2009-09-22 08:46 51°30.393 2°54.287 5.2 51 17.1 102420 42
2009-09-22 08:47 51°30.456 2°54.531 4.6 57 17.1 102430 42
2009-09-22 08:48 51°30.515 2°54.785 4.2 51 17 102430 39
2009-09-22 08:49 51°30.574 2°55.038 5.5 51 17.6 102430 42
2009-09-22 08:50 51°30.633 2°55.288 4.5 53 17.7 102430 39
2009-09-22 08:51 51°30.7 2°55.535 4.4 56 17.7 102440 41
2009-09-22 08:52 51°30.764 2°55.781 3.6 58 18 102430 42
2009-09-22 08:53 51°30.831 2°56.027 3.9 57 18.1 102430 42
2009-09-22 08:54 51°30.907 2°56.261 6.7 56 17.8 102430 39
2009-09-22 08:55 51°30.989 2°56.488 7.5 52 17.2 102450 40
2009-09-22 08:56 51°31.079 2°56.709 7.5 53 16.9 102450 39
2009-09-22 08:57 51°31.175 2°56.921 7.1 58 16.6 102450 39
2009-09-22 08:58 51°31.275 2°57.12 5.1 57 16.5 102430 42
2009-09-22 08:59 51°31.375 2°57.323 7.4 50 16.4 102430 42
2009-09-22 09:00 51°31.478 2°57.525 5.8 52 16.4 102430 39
2009-09-22 09:01 51°31.59 2°57.713 5.7 53 16.3 102430 42
2009-09-22 09:02 51°31.705 2°57.902 8.2 52 16.3 102430 41
2009-09-22 09:03 51°31.817 2°58.096 7.2 59 16.3 102430 40
2009-09-22 09:04 51°31.929 2°58.292 5.4 313 16.3 102420 41
2009-09-22 09:05 51°32.044 2°58.484 7.3 57 16.2 102430 42
2009-09-22 09:06 51°32.164 2°58.668 6.5 55 16.2 102420 41
2009-09-22 09:07 51°32.292 2°58.832 8.5 55 16.2 102420 42
2009-09-22 09:08 51°32.429 2°58.963 6.9 308 16.2 102430 42
2009-09-22 09:09 51°32.572 2°59.079 5.3 308 16.2 102430 42
2009-09-22 09:10 51°32.723 2°59.025 15.5 307 16.3 102390 41
2009-09-22 09:11 51°32.865 2°58.883 14 303 16.3 102380 41
2009-09-22 09:12 51°32.999 2°58.724 12.6 302 16.3 102390 40
2009-09-22 09:13 51°33.12 2°58.537 14.9 307 16.3 102370 40
2009-09-22 09:14 51°33.241 2°58.341 14.7 306 16.3 102350 41
2009-09-22 09:15 51°33.356 2°58.136 15.1 303 16.3 102390 41
2009-09-22 09:16 51°33.464 2°57.924 15 303 16.3 102340 42
2009-09-22 09:17 51°33.571 2°57.707 14.5 302 16.2 102350 41
2009-09-22 09:18 51°33.679 2°57.477 13.8 304 16.2 102360 41
2009-09-22 09:19 51°33.782 2°57.243 14.8 304 16.2 102340 41
2009-09-22 09:20 51°33.877 2°57.009 15.7 307 16.2 102350 42
2009-09-22 09:21 51°33.972 2°56.766 15.8 307 16.2 102380 41
2009-09-22 09:22 51°34.066 2°56.519 13.7 307 16 102360 40
2009-09-22 09:23 51°34.145 2°56.27 15.6 307 16 102360 40
2009-09-22 09:24 51°34.203 2°55.997 16 303 16 102380 41
2009-09-22 09:25 51°34.21 2°55.703 14.2 328 16 102380 41
2009-09-22 09:26 51°34.123 2°55.427 17.2 335 15.9 102390 41
2009-09-22 09:27 51°34.007 2°55.17 16.6 335 15.9 102400 41
2009-09-22 09:28 51°33.893 2°54.897 15.2 335 15.9 102410 41
2009-09-22 09:29 51°33.783 2°54.62 18.6 337 15.9 102400 41
2009-09-22 09:30 51°33.672 2°54.348 15.4 335 15.8 102400 41
2009-09-22 09:31 51°33.564 2°54.089 17.5 336 15.9 102410 41
2009-09-22 09:32 51°33.45 2°53.817 15.6 336 15.8 102400 42
2009-09-22 09:33 51°33.335 2°53.543 17.7 334 15.8 102410 41
2009-09-22 09:34 51°33.222 2°53.268 15.8 333 15.8 102400 42
2009-09-22 09:35 51°33.11 2°52.998 17.4 334 15.8 102410 42
2009-09-22 09:36 51°32.995 2°52.727 17.1 335 15.8 102420 41
2009-09-22 09:37 51°32.88 2°52.456 16 336 15.8 102410 41
2009-09-22 09:38 51°32.762 2°52.182 16.4 336 15.8 102420 42
2009-09-22 09:39 51°32.648 2°51.911 17.5 331 15.8 102420 42
2009-09-22 09:40 51°32.532 2°51.636 13.1 334 15.9 102420 43
2009-09-22 09:41 51°32.419 2°51.368 17.3 337 15.9 102420 42
2009-09-22 09:42 51°32.303 2°51.092 16.9 334 15.8 102420 42
2009-09-22 09:43 51°32.187 2°50.819 16.3 334 15.8 102410 41
2009-09-22 09:44 51°32.07 2°50.541 15.9 334 15.8 102440 42
2009-09-22 09:45 51°31.953 2°50.265 15.4 335 15.9 102440 42
2009-09-22 09:46 51°31.839 2°49.988 17.5 333 15.8 102420 42
2009-09-22 09:47 51°31.726 2°49.723 14.2 332 15.8 102430 42
2009-09-22 09:48 51°31.612 2°49.458 15.2 335 15.9 102420 41
2009-09-22 09:49 51°31.493 2°49.175 16.1 334 15.8 102430 42
2009-09-22 09:50 51°31.38 2°48.906 14.8 333 15.8 102430 42
2009-09-22 09:51 51°31.267 2°48.636 16.1 333 15.8 102430 41
2009-09-22 09:52 51°31.152 2°48.365 16.1 333 15.8 102440 42
2009-09-22 09:53 51°31.037 2°48.092 17 331 15.7 102440 41
2009-09-22 09:54 51°30.922 2°47.818 17.4 335 15.9 102430 42
2009-09-22 09:55 51°30.812 2°47.537 17.6 327 15.8 102440 41
2009-09-22 09:56 51°30.812 2°47.246 14.3 309 15.8 102420 41
2009-09-22 09:57 51°30.924 2°47.054 13.3 307 16 102400 41
2009-09-22 09:58 51°31.079 2°46.992 14.9 302 15.9 102430 41
2009-09-22 09:59 51°31.239 2°46.99 11.8 305 16 102450 41
2009-09-22 10:00 51°31.397 2°47.017 10.3 302 16 102470 41
2009-09-22 10:01 51°31.553 2°47.047 12 304 16 102460 40
2009-09-22 10:02 51°31.707 2°47.084 13.4 304 16 102450 41
2009-09-22 10:03 51°31.861 2°47.115 12.1 305 16 102440 41
2009-09-22 10:04 51°32.017 2°47.133 9.7 302 16 102450 41
2009-09-22 10:05 51°32.173 2°47.157 11.5 305 16 102470 42
2009-09-22 10:06 51°32.33 2°47.185 10.6 306 16.1 102460 42
2009-09-22 10:07 51°32.485 2°47.213 13.2 307 16 102450 41
2009-09-22 10:08 51°32.641 2°47.24 13 308 16 102430 42
2009-09-22 10:09 51°32.798 2°47.266 7.2 304 16 102440 41
2009-09-22 10:10 51°32.956 2°47.291 10.1 306 16 102440 40
2009-09-22 10:11 51°33.114 2°47.316 13 310 16 102440 41
2009-09-22 10:12 51°33.273 2°47.316 12.3 306 16.1 102440 41
2009-09-22 10:13 51°33.435 2°47.307 11.5 303 16 102420 41
2009-09-22 10:14 51°33.597 2°47.302 9.6 302 16.1 102440 42
2009-09-22 10:15 51°33.758 2°47.301 10.7 303 16.1 102440 42
2009-09-22 10:16 51°33.917 2°47.296 12.4 308 16 102430 42
2009-09-22 10:17 51°34.078 2°47.294 9.8 304 16 102430 42
2009-09-22 10:18 51°34.237 2°47.292 9.8 303 16.1 102430 42
2009-09-22 10:19 51°34.394 2°47.311 9.6 307 16.1 102440 42
2009-09-22 10:20 51°34.551 2°47.331 11.1 307 16 102440 40
2009-09-22 10:21 51°34.709 2°47.347 11.8 304 16.1 102430 42
2009-09-22 10:22 51°34.864 2°47.36 11.8 308 16.1 102430 41
2009-09-22 10:23 51°35.02 2°47.392 7.6 301 16 102430 40
2009-09-22 10:24 51°35.169 2°47.466 6.7 308 16.1 102430 43
2009-09-22 10:25 51°35.312 2°47.551 6 306 16 102430 39
2009-09-22 10:26 51°35.457 2°47.631 6.5 306 15.9 102430 42
2009-09-22 10:27 51°35.596 2°47.724 7.5 304 15.9 102430 40
2009-09-22 10:28 51°35.736 2°47.83 5.7 303 15.9 102440 42
2009-09-22 10:29 51°35.878 2°47.928 6.8 55 15.9 102440 40
2009-09-22 10:30 51°36.019 2°48.027 6.4 301 15.9 102450 43
2009-09-22 10:31 51°36.16 2°48.132 7.8 308 15.9 102440 40
2009-09-22 10:32 51°36.303 2°48.227 7.3 307 15.9 102450 42
2009-09-22 10:33 51°36.444 2°48.323 6.4 309 15.9 102440 43
2009-09-22 10:34 51°36.588 2°48.417 8.1 303 15.9 102450 40
2009-09-22 10:35 51°36.73 2°48.52 5 301 15.8 102440 41
2009-09-22 10:36 51°36.862 2°48.61 5.4 260 15.9 102440 39
2009-09-22 10:37 51°37.027 2°48.722 7.3 266 16 102440 39
2009-09-22 10:38 51°37.17 2°48.817 5 268 15.9 102450 39
2009-09-22 10:39 51°37.312 2°48.919 4.8 264 15.9 102450 43
2009-09-22 10:40 51°37.451 2°49.023 6.1 263 16 102440 43
2009-09-22 10:41 51°37.592 2°49.128 5.5 263 16 102440 42
2009-09-22 10:42 51°37.729 2°49.236 5.1 264 16 102440 42
2009-09-22 10:43 51°37.868 2°49.341 5.6 267 16 102450 43
2009-09-22 10:44 51°38.008 2°49.447 6 269 16 102430 43
2009-09-22 10:45 51°38.145 2°49.547 6.1 270 15.9 102440 40
2009-09-22 10:46 51°38.288 2°49.654 5.2 264 15.9 102440 42
2009-09-22 10:47 51°38.426 2°49.761 6.7 269 15.9 102430 39
2009-09-22 10:48 51°38.567 2°49.881 5.7 27 15.8 102440 42
2009-09-22 10:49 51°38.701 2°50.008 7.2 270 15.9 102440 43
2009-09-22 10:50 51°38.839 2°50.129 5.7 269 15.8 102440 40
2009-09-22 10:51 51°38.975 2°50.256 4.8 268 15.9 102440 39
2009-09-22 10:52 51°39.114 2°50.375 5.1 269 15.9 102430 42
2009-09-22 10:53 51°39.249 2°50.501 5.6 269 16 102420 40
2009-09-22 10:54 51°39.387 2°50.628 5.5 266 16.1 102420 42
2009-09-22 10:55 51°39.526 2°50.749 4.9 263 16.1 102430 43
2009-09-22 10:56 51°39.663 2°50.874 5.1 264 16.1 102430 39
2009-09-22 10:57 51°39.786 2°51.017 3.4 21 16 102430 42
2009-09-22 10:58 51°39.742 2°51.252 12.1 15 16 102420 42
2009-09-22 10:59 51°39.579 2°51.396 10.8 8 16 102400 41
2009-09-22 11:00 51°39.406 2°51.55 12.1 10 15.9 102410 41
2009-09-22 11:01 51°39.233 2°51.696 11.2 13 15.9 102400 41
2009-09-22 11:02 51°39.059 2°51.823 12.4 6 15.9 102400 40
2009-09-22 11:03 51°38.869 2°51.908 10.1 2 15.9 102400 41
2009-09-22 11:04 51°38.681 2°51.998 9.3 7 15.9 102400 42
2009-09-22 11:05 51°38.531 2°52.18 11.8 21 15.9 102410 43
2009-09-22 11:06 51°38.441 2°52.426 8.3 22 15.8 102430 40
2009-09-22 11:07 51°38.361 2°52.683 7.6 24 15.9 102430 43
2009-09-22 11:08 51°38.285 2°52.944 7.6 27 15.9 102430 41
2009-09-22 11:09 51°38.211 2°53.201 7 18 15.9 102430 40
2009-09-22 11:10 51°38.136 2°53.462 5.4 25 15.9 102440 43
2009-09-22 11:11 51°38.057 2°53.723 6.2 21 16 102430 43
2009-09-22 11:12 51°37.983 2°53.981 8.8 28 16 102440 42
2009-09-22 11:13 51°37.907 2°54.238 7.1 29 16 102440 43
2009-09-22 11:14 51°37.828 2°54.497 5.5 22 16 102440 43
2009-09-22 11:15 51°37.748 2°54.759 7.4 28 16.1 102430 40
2009-09-22 11:16 51°37.634 2°54.993 11.4 10 16 102430 40
2009-09-22 11:17 51°37.45 2°55.087 13.2 356 16.1 102410 42
2009-09-22 11:18 51°37.284 2°54.945 13.5 340 16.1 102410 43
2009-09-22 11:19 51°37.137 2°54.738 16.5 334 16 102420 42
2009-09-22 11:20 51°37.005 2°54.501 14.3 335 16 102420 41
2009-09-22 11:21 51°36.881 2°54.26 14.9 333 16.1 102440 41
2009-09-22 11:22 51°36.75 2°54.012 15.6 336 16.2 102420 41
2009-09-22 11:23 51°36.62 2°53.767 14.4 337 16.1 102440 41
2009-09-22 11:24 51°36.501 2°53.534 14.5 332 16.1 102430 41
2009-09-22 11:25 51°36.396 2°53.264 15.8 331 16.1 102430 42
2009-09-22 11:26 51°36.303 2°53.007 16 331 16.1 102420 41
2009-09-22 11:27 51°36.209 2°52.744 15.6 331 16.1 102410 40
2009-09-22 11:28 51°36.11 2°52.473 16.5 330 16.1 102410 41
2009-09-22 11:29 51°36.011 2°52.201 13.6 333 16.1 102420 41
2009-09-22 11:30 51°35.912 2°51.929 15.6 329 16.1 102420 42
2009-09-22 11:31 51°35.819 2°51.667 16.2 326 16.1 102420 41
2009-09-22 11:32 51°35.718 2°51.395 13.1 330 16.2 102420 42
2009-09-22 11:33 51°35.627 2°51.147 14.3 328 16.2 102420 41
2009-09-22 11:34 51°35.529 2°50.892 16.7 330 16.2 102430 41
2009-09-22 11:35 51°35.432 2°50.623 14.7 329 16.1 102420 42
2009-09-22 11:36 51°35.312 2°50.411 15 351 16.2 102430 40
2009-09-22 11:37 51°35.167 2°50.545 9.5 16 16.1 102420 41
2009-09-22 11:38 51°35.01 2°50.844 10.6 12 16.1 102430 42
2009-09-22 11:39 51°34.881 2°51.068 11.2 15 16.1 102430 41
2009-09-22 11:40 51°34.754 2°51.29 7.3 16 16.1 102440 43
2009-09-22 11:41 51°34.632 2°51.513 11.6 18 16.1 102450 42
2009-09-22 11:42 51°34.505 2°51.73 9.9 12 16.1 102440 42
2009-09-22 11:43 51°34.382 2°51.944 10.7 12 16 102440 43
2009-09-22 11:44 51°34.258 2°52.163 11.4 14 16 102440 42
2009-09-22 11:45 51°34.132 2°52.379 11.2 10 16 102440 41
2009-09-22 11:46 51°34.005 2°52.595 12.4 13 16.1 102440 42
2009-09-22 11:47 51°33.879 2°52.815 10.6 14 16.1 102450 42
2009-09-22 11:48 51°33.766 2°53.036 9.1 27 16.1 102440 41
2009-09-22 11:49 51°33.822 2°53.239 6.1 270 16.1 102460 41
2009-09-22 11:50 51°33.956 2°53.373 3.4 28 16.1 102460 41
2009-09-22 11:51 51°34.066 2°53.566 4.8 22 16.1 102450 43
2009-09-22 11:52 51°34.15 2°53.796 3.1 27 16.5 102450 41
2009-09-22 11:53 51°34.236 2°54.027 3.1 21 17 102450 42
2009-09-22 11:54 51°34.325 2°54.26 5.9 29 17.2 102450 39
2009-09-22 11:55 51°34.412 2°54.486 2.8 21 17.1 102450 41
2009-09-22 11:56 51°34.503 2°54.707 3.8 26 17.2 102440 44
2009-09-22 11:57 51°34.595 2°54.935 3.9 21 17.1 102450 43
2009-09-22 11:58 51°34.691 2°55.156 3.5 22 16.8 102450 43
2009-09-22 11:59 51°34.792 2°55.374 3.2 21 16.9 102450 43
2009-09-22 12:00 51°34.892 2°55.596 4.8 22 16.8 102450 44
2009-09-22 12:01 51°34.984 2°55.815 2.6 28 16.7 102440 43
2009-09-22 12:02 51°35.08 2°56.04 3.6 20 17 102450 40
2009-09-22 12:03 51°35.179 2°56.267 2.7 23 17.3 102450 42
2009-09-22 12:04 51°35.275 2°56.482 2.2 27 17.2 102440 42
2009-09-22 12:05 51°35.373 2°56.707 4.7 25 17 102450 43
2009-09-22 12:06 51°35.471 2°56.931 2.7 29 16.8 102450 43
2009-09-22 12:07 51°35.568 2°57.147 3.8 26 16.6 102450 39
2009-09-22 12:08 51°35.666 2°57.369 3.2 27 16.6 102450 40
2009-09-22 12:09 51°35.767 2°57.596 4.4 21 16.5 102450 43
2009-09-22 12:10 51°35.833 2°57.847 4.3 44 16.6 102440 44
2009-09-22 12:11 51°35.774 2°58.099 11.4 11 16.6 102430 43
2009-09-22 12:12 51°35.602 2°58.227 10.5 3 16.5 102410 41
2009-09-22 12:13 51°35.418 2°58.314 11.6 1 16.3 102420 41
2009-09-22 12:14 51°35.235 2°58.389 14.3 -999 16.3 102410 43
2009-09-22 12:15 51°35.048 2°58.465 13.5 1 16.2 102410 41
2009-09-22 12:16 51°34.857 2°58.538 13.3 1 16.2 102400 42
2009-09-22 12:17 51°34.667 2°58.613 10.6 6 16.2 102390 41
2009-09-22 12:18 51°34.479 2°58.691 15.3 1 16.3 102410 43
2009-09-22 12:19 51°34.288 2°58.766 14.5 360 16.2 102400 43
2009-09-22 12:20 51°34.1 2°58.855 11.9 2 16.2 102390 42
2009-09-22 12:21 51°33.91 2°58.954 10.7 357 16.2 102390 42
2009-09-22 12:22 51°33.729 2°59.055 14.4 1 16.2 102400 43
2009-09-22 12:23 51°33.541 2°59.161 13.3 359 16.3 102400 40
2009-09-22 12:24 51°33.356 2°59.266 12.9 1 16.3 102400 43
2009-09-22 12:25 51°33.168 2°59.376 9.9 2 16.3 102410 42
2009-09-22 12:26 51°32.979 2°59.489 13.7 3 16.3 102400 42
2009-09-22 12:27 51°32.798 2°59.595 12.2 358 16.3 102410 41
2009-09-22 12:28 51°32.618 2°59.697 14.5 2 16.4 102390 41
2009-09-22 12:29 51°32.437 2°59.79 13.3 358 16.3 102380 42
2009-09-22 12:30 51°32.247 2°59.82 17 350 16.4 102370 43
2009-09-22 12:31 51°32.065 2°59.79 17.5 348 16.3 102340 40
2009-09-22 12:32 51°31.885 2°59.696 17 341 16.3 102360 41
2009-09-22 12:33 51°31.713 2°59.594 16.9 339 16.4 102390 42
2009-09-22 12:34 51°31.539 2°59.49 17.4 346 16.4 102370 42
2009-09-22 12:35 51°31.365 2°59.4 16.2 347 16.4 102380 41
2009-09-22 12:36 51°31.194 2°59.316 16.2 343 16.5 102390 42
2009-09-22 12:37 51°31.019 2°59.223 14.7 342 16.5 102380 42
2009-09-22 12:38 51°30.848 2°59.133 15.5 346 16.5 102390 42
2009-09-22 12:39 51°30.671 2°59.04 17.1 349 16.5 102380 41
2009-09-22 12:40 51°30.501 2°58.952 17.4 348 16.4 102380 42
2009-09-22 12:41 51°30.322 2°58.86 16.4 351 16.4 102370 42
2009-09-22 12:42 51°30.153 2°58.776 16.1 352 16.3 102370 42
2009-09-22 12:43 51°29.982 2°58.696 16.5 351 16.4 102360 41
2009-09-22 12:44 51°29.814 2°58.612 16.2 351 16.4 102370 42
2009-09-22 12:45 51°29.648 2°58.532 17 348 16.4 102370 42
2009-09-22 12:46 51°29.476 2°58.44 16.8 351 16.4 102370 42
2009-09-22 12:47 51°29.308 2°58.361 17.9 350 16.3 102370 40
2009-09-22 12:48 51°29.144 2°58.278 16 351 16.4 102370 42
2009-09-22 12:49 51°28.98 2°58.197 17.2 351 16.4 102370 42
2009-09-22 12:50 51°28.812 2°58.114 17.3 352 16.3 102370 41
2009-09-22 12:51 51°28.645 2°58.032 14.9 348 16.4 102380 42
2009-09-22 12:52 51°28.479 2°57.952 18 351 16.4 102360 41
2009-09-22 12:53 51°28.307 2°57.868 17.6 350 16.3 102360 41
2009-09-22 12:54 51°28.141 2°57.789 17.8 351 16.4 102370 41
2009-09-22 12:55 51°27.973 2°57.708 16.2 350 16.4 102360 41
2009-09-22 12:56 51°27.804 2°57.626 17.7 352 16.4 102360 42
2009-09-22 12:57 51°27.636 2°57.539 16.2 348 16.4 102350 41
2009-09-22 12:58 51°27.466 2°57.459 16.4 348 16.4 102360 41
2009-09-22 12:59 51°27.298 2°57.378 15.4 350 16.5 102370 42
2009-09-22 13:00 51°27.126 2°57.297 15.5 350 16.4 102350 42
2009-09-22 13:01 51°26.959 2°57.22 17.4 351 16.4 102360 41
2009-09-22 13:02 51°26.787 2°57.152 14.1 346 16.4 102350 42
2009-09-22 13:03 51°26.621 2°57.087 15.2 349 16.4 102350 42
2009-09-22 13:04 51°26.448 2°57.021 14.7 349 16.4 102350 41
2009-09-22 13:05 51°26.274 2°56.957 15.1 348 16.5 102360 42
2009-09-22 13:06 51°26.104 2°56.885 15.8 351 16.4 102350 42
2009-09-22 13:07 51°25.944 2°56.793 15.6 349 16.4 102350 43
2009-09-22 13:08 51°25.783 2°56.696 16.4 345 16.5 102360 42
2009-09-22 13:09 51°25.625 2°56.621 17.2 350 16.4 102360 41
2009-09-22 13:10 51°25.483 2°56.548 15.7 349 16.4 102350 42
2009-09-22 13:11 51°25.331 2°56.462 17 350 16.4 102350 42
2009-09-22 13:12 51°25.175 2°56.376 15.6 349 16.4 102350 42
2009-09-22 13:13 51°25.024 2°56.296 14.9 347 16.3 102340 42
2009-09-22 13:14 51°24.874 2°56.218 15.8 351 16.3 102340 42
2009-09-22 13:15 51°24.721 2°56.133 14.6 348 16.3 102350 42
2009-09-22 13:16 51°24.571 2°56.051 14.1 347 16.4 102350 42
2009-09-22 13:17 51°24.419 2°55.967 17 350 16.5 102340 42
2009-09-22 13:18 51°24.269 2°55.885 17.2 347 16.6 102330 43
2009-09-22 13:19 51°24.122 2°55.815 16.2 348 16.5 102330 43
2009-09-22 13:20 51°23.979 2°55.747 15.8 348 16.5 102360 42
2009-09-22 13:21 51°23.841 2°55.677 15.1 349 16.5 102350 43
2009-09-22 13:22 51°23.697 2°55.598 15.2 348 16.5 102350 42
2009-09-22 13:23 51°23.546 2°55.516 15.7 346 16.5 102340 42
2009-09-22 13:24 51°23.4 2°55.442 15.7 345 16.6 102340 43
2009-09-22 13:25 51°23.251 2°55.361 16.1 348 16.6 102340 42
2009-09-22 13:26 51°23.1 2°55.281 15.8 352 16.6 102320 43
2009-09-22 13:27 51°22.949 2°55.197 15.2 347 16.6 102320 42
2009-09-22 13:28 51°22.805 2°55.122 14.9 351 16.6 102300 42
2009-09-22 13:29 51°22.655 2°55.046 15.8 347 16.6 102330 42
2009-09-22 13:30 51°22.508 2°54.97 14.9 350 16.7 102310 43
2009-09-22 13:31 51°22.359 2°54.891 14.2 347 16.7 102300 42
2009-09-22 13:32 51°22.208 2°54.814 17.4 346 16.7 102320 42
2009-09-22 13:33 51°22.059 2°54.741 16 350 16.6 102300 42
2009-09-22 13:34 51°21.911 2°54.679 16.6 350 16.7 102310 42
2009-09-22 13:35 51°21.761 2°54.614 13.5 349 16.7 102300 43
2009-09-22 13:36 51°21.61 2°54.544 17 347 16.7 102310 43
2009-09-22 13:37 51°21.464 2°54.478 14.5 350 16.6 102310 43
2009-09-22 13:38 51°21.313 2°54.408 15.6 348 16.7 102320 43
2009-09-22 13:39 51°21.162 2°54.335 14.2 350 16.7 102300 43
2009-09-22 13:40 51°21.013 2°54.263 15.5 349 16.7 102300 43
2009-09-22 13:41 51°20.861 2°54.192 16.2 350 16.6 102300 42
2009-09-22 13:42 51°20.721 2°54.131 15.2 347 16.6 102280 42
2009-09-22 13:43 51°20.578 2°54.068 15.3 349 16.7 102310 42
2009-09-22 13:44 51°20.433 2°53.999 16.9 349 16.7 102290 42
2009-09-22 13:45 51°20.284 2°53.93 17.5 350 16.7 102310 42
2009-09-22 13:46 51°20.147 2°53.871 16.6 346 16.7 102320 41
2009-09-22 13:47 51°20.01 2°53.79 16.4 349 16.6 102320 42
2009-09-22 13:48 51°19.87 2°53.704 16.9 348 16.7 102310 42
2009-09-22 13:49 51°19.733 2°53.618 16 349 16.7 102300 42
2009-09-22 13:50 51°19.591 2°53.529 15.3 348 16.7 102310 42
2009-09-22 13:51 51°19.452 2°53.442 16.5 351 16.7 102310 42
2009-09-22 13:52 51°19.311 2°53.355 15.8 351 16.7 102300 42
2009-09-22 13:53 51°19.175 2°53.275 13.8 348 16.7 102310 42
2009-09-22 13:54 51°19.034 2°53.184 16.4 348 16.7 102310 43
2009-09-22 13:55 51°18.895 2°53.094 16.3 350 16.7 102310 42
2009-09-22 13:56 51°18.761 2°53.015 16.5 348 16.6 102310 42
2009-09-22 13:57 51°18.623 2°52.932 15.9 348 16.7 102320 42
2009-09-22 13:58 51°18.493 2°52.849 14.6 349 16.7 102320 42
2009-09-22 13:59 51°18.351 2°52.766 15.8 350 16.7 102320 42
2009-09-22 14:00 51°18.214 2°52.683 16.2 353 16.7 102330 43
2009-09-22 14:01 51°18.076 2°52.592 16.4 350 16.7 102310 43
2009-09-22 14:02 51°17.941 2°52.515 15.8 354 16.7 102300 42
2009-09-22 14:03 51°17.802 2°52.44 15.7 351 16.7 102320 43
2009-09-22 14:04 51°17.654 2°52.389 16 357 16.7 102310 43
2009-09-22 14:05 51°17.508 2°52.361 14.2 357 16.8 102310 42
2009-09-22 14:06 51°17.353 2°52.33 13.9 354 16.8 102330 43
2009-09-22 14:07 51°17.196 2°52.343 10.1 5 16.8 102320 42
2009-09-22 14:08 51°17.04 2°52.478 10.4 9 16.8 102350 43
2009-09-22 14:09 51°16.891 2°52.627 12.2 7 16.9 102340 45
2009-09-22 14:10 51°16.734 2°52.767 8.9 6 16.8 102340 44
2009-09-22 14:11 51°16.578 2°52.92 11.6 9 16.8 102340 43
2009-09-22 14:12 51°16.417 2°53.071 11.1 8 16.9 102330 44
2009-09-22 14:13 51°16.259 2°53.215 8.4 8 16.9 102340 43
2009-09-22 14:14 51°16.101 2°53.331 10.6 9 16.9 102340 42
2009-09-22 14:15 51°15.935 2°53.415 10.7 2 16.9 102340 44
2009-09-22 14:16 51°15.773 2°53.505 10.3 4 16.9 102340 45
2009-09-22 14:17 51°15.607 2°53.595 10.8 5 16.9 102340 43
2009-09-22 14:18 51°15.447 2°53.683 9.5 7 16.9 102340 44
2009-09-22 14:19 51°15.28 2°53.774 12.3 9 16.9 102340 45
2009-09-22 14:20 51°15.124 2°53.888 11 19 16.8 102320 43
2009-09-22 14:21 51°14.981 2°54.063 10.2 16 16.8 102350 43
2009-09-22 14:22 51°14.839 2°54.262 11.6 20 16.8 102360 44
2009-09-22 14:23 51°14.707 2°54.479 9 22 16.9 102350 45
2009-09-22 14:24 51°14.574 2°54.698 9.1 19 16.9 102350 44
2009-09-22 14:25 51°14.444 2°54.916 7.2 17 17 102360 44
2009-09-22 14:26 51°14.317 2°55.152 6.4 13 16.9 102350 42
2009-09-22 14:27 51°14.197 2°55.348 8.9 12 17 102360 44
2009-09-22 14:28 51°14.058 2°55.464 5.9 356 17 102360 46
2009-09-22 14:29 51°13.946 2°55.545 5.7 7 17.1 102360 46
2009-09-22 14:30 51°13.842 2°55.62 3.7 26 17.2 102340 43
2009-09-22 14:31 51°13.756 2°55.716 4.2 26 17.3 102360 46
2009-09-22 14:32 51°13.704 2°55.818 6.2 22 17.4 102360 41
2009-09-22 14:33 51°13.67 2°55.912 4.2 35 17.5 102360 41
2009-09-22 14:34 51°13.661 2°55.959 6.5 25 17.4 102360 42